This is the latest recevied weather packets stored in our database for station/object DB0NU-15. If no packets are shown the sender has not sent any weather packets the latest 10 day(s).
| Time | Temp. | Humidity | Pressure | Rain* | Wind** | Luminosity | Snow |
|---|---|---|---|---|---|---|---|
| 1777863019 | 13.33° C | 67% | 1015.1 hPa | 0 mm | - | - | - |
| 1777862415 | 13.33° C | 67% | 1015.1 hPa | 0 mm | - | - | - |
| 1777861872 | 13.33° C | 68% | 1015 hPa | 0 mm | - | - | - |
| 1777861269 | 13.89° C | 67% | 1015 hPa | 0 mm | - | - | - |
| 1777860666 | 13.89° C | 67% | 1015 hPa | 0 mm | - | - | - |
| 1777859459 | 13.89° C | 63% | 1015.1 hPa | 0 mm | - | - | - |
| 1777858855 | 13.89° C | 63% | 1015.2 hPa | 0 mm | - | - | - |
| 1777858252 | 14.44° C | 62% | 1015.1 hPa | 0 mm | - | - | - |
| 1777857649 | 14.44° C | 62% | 1015.1 hPa | 0 mm | - | - | - |
| 1777857045 | 15° C | 59% | 1015.2 hPa | 0 mm | - | - | - |
| 1777856442 | 14.44° C | 61% | 1015.1 hPa | 0 mm | - | - | - |
| 1777855235 | 14.44° C | 64% | 1015.1 hPa | 0 mm | - | - | - |
| 1777854631 | 14.44° C | 63% | 1015.2 hPa | 0 mm | - | - | - |
| 1777854028 | 14.44° C | 64% | 1015.1 hPa | 0 mm | - | - | - |
| 1777853425 | 14.44° C | 64% | 1015.1 hPa | 0 mm | - | - | - |
| 1777852821 | 14.44° C | 64% | 1015.1 hPa | 0 mm | - | - | - |
| 1777852218 | 14.44° C | 65% | 1015.1 hPa | 0 mm | - | - | - |
| 1777851675 | 15° C | 63% | 1015.2 hPa | 0 mm | - | - | - |
| 1777851070 | 15° C | 62% | 1015 hPa | 0 mm | - | - | - |
| 1777850467 | 15° C | 62% | 1015.1 hPa | 0 mm | - | - | - |
| 1777849863 | 15° C | 63% | 1015.1 hPa | 0 mm | - | - | - |
| 1777848658 | 15.56° C | 61% | 1014.8 hPa | 0 mm | - | - | - |
| 1777848053 | 15.56° C | 61% | 1014.7 hPa | 0 mm | - | - | - |
| 1777847450 | 15.56° C | 63% | 1015 hPa | 0 mm | - | - | - |
| 1777846243 | 15.56° C | 61% | 1014.9 hPa | 0 mm | - | - | - |
* Rain latest hour (hover to see other rain measurements)
** Current wind speed in m/s (hover to see current wind gust speed)